| time (UTC) | temp F | wind direction | speed MPH | gust MPH | rain 1hr in | rain 24hr in | rain mn in | humidity % | barometer mb |
| 20260510194405 | 59 | 23 | 1.0 | 2.0 | 0.00 | 0.19 | 0.19 | 89 | 1012.3 |
| 20260510193906 | 59 | 14 | 1.0 | 3.0 | 0.00 | 0.19 | 0.19 | 89 | 1012.3 |
| 20260510193409 | 59 | 23 | 2.0 | 3.0 | 0.00 | 0.19 | 0.19 | 89 | 1012.2 |
| 20260510191905 | 59 | 29 | 2.0 | 3.0 | 0.00 | 0.19 | 0.19 | 89 | 1012.2 |
| 20260510191405 | 60 | 31 | 1.0 | 3.0 | 0.00 | 0.19 | 0.19 | 89 | 1012.1 |
| 20260510190408 | 60 | 28 | 2.0 | 3.0 | 0.00 | 0.19 | 0.19 | 89 | 1012.0 |
| 20260510184906 | 60 | 11 | 1.0 | 2.0 | 0.00 | 0.19 | 0.19 | 89 | 1012.0 |
| 20260510184406 | 60 | 17 | 1.0 | 2.0 | 0.00 | 0.19 | 0.19 | 89 | 1012.0 |
| 20260510183905 | 60 | 17 | 1.0 | 2.0 | 0.00 | 0.19 | 0.19 | 89 | 1012.0 |
| 20260510183405 | 60 | 17 | 1.0 | 2.0 | 0.00 | 0.19 | 0.19 | 89 | 1012.0 |
| 20260510181905 | 61 | 17 | 0.0 | 1.0 | 0.00 | 0.19 | 0.19 | 89 | 1012.0 |
| 20260510181405 | 61 | 17 | 1.0 | 2.0 | 0.00 | 0.19 | 0.19 | 89 | 1011.9 |
| 20260510180905 | 61 | 17 | 1.0 | 1.0 | 0.00 | 0.19 | 0.19 | 89 | 1011.8 |
| 20260510180405 | 61 | 17 | 0.0 | 2.0 | 0.01 | 0.19 | 0.19 | 89 | 1011.9 |
| 20260510174905 | 60 | 40 | 1.0 | 2.0 | 0.01 | 0.19 | 0.19 | 89 | 1011.9 |
| 20260510173905 | 60 | 28 | 2.0 | 3.0 | 0.01 | 0.19 | 0.19 | 88 | 1011.8 |
| 20260510173404 | 60 | 24 | 2.0 | 3.0 | 0.01 | 0.19 | 0.19 | 88 | 1011.9 |
| 20260510171910 | 61 | 36 | 0.0 | 2.0 | 0.01 | 0.19 | 0.19 | 89 | 1011.7 |
| 20260510171408 | 61 | 15 | 0.0 | 1.0 | 0.01 | 0.19 | 0.19 | 89 | 1011.8 |
| 20260510170405 | 60 | 15 | 1.0 | 3.0 | 0.00 | 0.18 | 0.18 | 89 | 1011.8 |
| 20260510164905 | 60 | 53 | 1.0 | 3.0 | 0.01 | 0.18 | 0.18 | 88 | 1011.9 |
| 20260510164410 | 61 | 91 | 1.0 | 5.0 | 0.01 | 0.18 | 0.18 | 88 | 1011.8 |
| 20260510163905 | 61 | 2 | 1.0 | 5.0 | 0.02 | 0.18 | 0.18 | 89 | 1011.9 |
| 20260510163405 | 61 | 29 | 0.0 | 2.0 | 0.02 | 0.18 | 0.18 | 89 | 1012.0 |
| 20260510161905 | 61 | 284 | 0.0 | 1.0 | 0.03 | 0.18 | 0.18 | 89 | 1012.2 |
| 20260510161405 | 61 | 284 | 0.0 | 0.0 | 0.04 | 0.18 | 0.18 | 89 | 1012.3 |
| 20260510160905 | 61 | 284 | 0.0 | 1.0 | 0.04 | 0.18 | 0.18 | 89 | 1012.4 |
| 20260510160405 | 62 | 276 | 0.0 | 1.0 | 0.04 | 0.18 | 0.18 | 89 | 1012.5 |
| 20260510154910 | 62 | 313 | 0.0 | 1.0 | 0.03 | 0.17 | 0.17 | 89 | 1012.5 |
| 20260510154407 | 62 | 315 | 0.0 | 1.0 | 0.03 | 0.17 | 0.17 | 89 | 1012.6 |
| 20260510153904 | 62 | 301 | 0.0 | 1.0 | 0.02 | 0.17 | 0.17 | 89 | 1012.6 |
| 20260510153405 | 62 | 311 | 0.0 | 1.0 | 0.02 | 0.17 | 0.17 | 89 | 1012.7 |
| 20260510151905 | 62 | 318 | 0.0 | 1.0 | 0.01 | 0.15 | 0.15 | 89 | 1012.7 |
| 20260510150905 | 61 | 16 | 0.0 | 0.0 | 0.00 | 0.14 | 0.14 | 88 | 1012.8 |
| 20260510150405 | 61 | 16 | 0.0 | 0.0 | 0.00 | 0.14 | 0.14 | 88 | 1012.7 |
| 20260510143907 | 61 | 16 | 1.0 | 2.0 | 0.02 | 0.14 | 0.14 | 88 | 1012.8 |
| 20260510143404 | 61 | 31 | 1.0 | 3.0 | 0.02 | 0.14 | 0.14 | 88 | 1012.9 |
| 20260510141905 | 60 | 352 | 1.0 | 3.0 | 0.03 | 0.14 | 0.14 | 88 | 1012.9 |
| 20260510141408 | 60 | 53 | 1.0 | 3.0 | 0.04 | 0.14 | 0.14 | 88 | 1012.9 |
| 20260510140407 | 60 | 20 | 2.0 | 5.0 | 0.06 | 0.14 | 0.14 | 88 | 1012.9 |
| 20260510134904 | 60 | 17 | 1.0 | 3.0 | 0.06 | 0.13 | 0.13 | 88 | 1013.1 |
| 20260510134405 | 60 | 337 | 2.0 | 7.0 | 0.05 | 0.13 | 0.13 | 88 | 1013.2 |
| 20260510133405 | 61 | 271 | 0.0 | 3.0 | 0.05 | 0.13 | 0.13 | 87 | 1013.3 |
| 20260510131412 | 61 | 302 | 0.0 | 2.0 | 0.04 | 0.10 | 0.10 | 86 | 1013.6 |
| 20260510130907 | 61 | 325 | 0.0 | 1.0 | 0.03 | 0.09 | 0.09 | 86 | 1013.6 |
| 20260510130405 | 61 | 301 | 0.0 | 1.0 | 0.02 | 0.09 | 0.09 | 86 | 1013.6 |
| 20260510124905 | 62 | 292 | 0.0 | 1.0 | 0.02 | 0.08 | 0.08 | 86 | 1013.7 |
| 20260510123904 | 62 | 101 | 0.0 | 1.0 | 0.02 | 0.08 | 0.08 | 85 | 1013.7 |
| 20260510123406 | 61 | 101 | 0.0 | 1.0 | 0.02 | 0.08 | 0.08 | 84 | 1013.6 |
| 20260510121405 | 61 | 104 | 1.0 | 3.0 | 0.00 | 0.06 | 0.06 | 83 | 1013.9 |
| 20260510120904 | 61 | 152 | 2.0 | 5.0 | 0.00 | 0.06 | 0.06 | 83 | 1013.8 |
| 20260510120405 | 62 | 148 | 2.0 | 6.0 | 0.00 | 0.06 | 0.06 | 83 | 1013.8 |
| 20260510114904 | 62 | 154 | 2.0 | 6.0 | 0.00 | 0.06 | 0.06 | 82 | 1013.7 |
| 20260510114405 | 62 | 96 | 2.0 | 3.0 | 0.00 | 0.06 | 0.06 | 82 | 1013.6 |
| 20260510113904 | 62 | 108 | 0.0 | 2.0 | 0.00 | 0.06 | 0.06 | 83 | 1013.5 |
| 20260510111404 | 62 | 111 | 1.0 | 3.0 | 0.00 | 0.06 | 0.06 | 84 | 1013.5 |
| 20260510110905 | 62 | 8 | 2.0 | 3.0 | 0.00 | 0.06 | 0.06 | 84 | 1013.6 |
| 20260510110410 | 62 | 135 | 1.0 | 5.0 | 0.00 | 0.06 | 0.06 | 85 | 1013.7 |
| 20260510104404 | 62 | 107 | 1.0 | 2.0 | 0.00 | 0.06 | 0.06 | 85 | 1014.1 |
| 20260510103919 | 62 | 134 | 1.0 | 3.0 | 0.00 | 0.06 | 0.06 | 85 | 1014.1 |
| 20260510103404 | 62 | 159 | 0.0 | 2.0 | 0.01 | 0.06 | 0.06 | 85 | 1014.1 |
| 20260510101909 | 62 | 197 | 0.0 | 1.0 | 0.02 | 0.06 | 0.06 | 85 | 1014.1 |
| 20260510101408 | 62 | 197 | 0.0 | 1.0 | 0.03 | 0.06 | 0.06 | 85 | 1014.1 |
| 20260510100404 | 61 | 327 | 0.0 | 3.0 | 0.06 | 0.06 | 0.06 | 84 | 1013.9 |
| 20260510094904 | 61 | 25 | 1.0 | 3.0 | 0.06 | 0.06 | 0.06 | 83 | 1014.1 |
| 20260510094404 | 61 | 45 | 0.0 | 2.0 | 0.06 | 0.06 | 0.06 | 83 | 1014.2 |
| 20260510093406 | 61 | 42 | 1.0 | 3.0 | 0.06 | 0.06 | 0.06 | 82 | 1014.4 |
| 20260510091404 | 62 | 95 | 1.0 | 3.0 | 0.03 | 0.03 | 0.03 | 80 | 1014.2 |
| 20260510090904 | 63 | 134 | 1.0 | 3.0 | 0.02 | 0.02 | 0.02 | 80 | 1014.1 |
| 20260510090404 | 63 | 69 | 1.0 | 3.0 | 0.01 | 0.01 | 0.01 | 80 | 1013.9 |
| 20260510084904 | 63 | 40 | 0.0 | 2.0 | 0.00 | 0.00 | 0.00 | 80 | 1013.9 |
| 20260510084404 | 63 | 37 | 1.0 | 3.0 | 0.00 | 0.00 | 0.00 | 80 | 1014.0 |
| 20260510083904 | 63 | 89 | 0.0 | 1.0 | 0.00 | 0.00 | 0.00 | 80 | 1014.1 |
| 20260510083405 | 62 | 66 | 0.0 | 2.0 | 0.00 | 0.00 | 0.00 | 80 | 1013.9 |
| 20260510081904 | 62 | 56 | 1.0 | 3.0 | 0.00 | 0.00 | 0.00 | 81 | 1013.8 |
| 20260510081404 | 62 | 17 | 2.0 | 3.0 | 0.00 | 0.00 | 0.00 | 82 | 1013.7 |
| 20260510080904 | 63 | 67 | 1.0 | 3.0 | 0.00 | 0.00 | 0.00 | 83 | 1013.8 |
| 20260510080404 | 63 | 3 | 2.0 | 3.0 | 0.00 | 0.00 | 0.00 | 83 | 1013.8 |
| 20260510074904 | 63 | 67 | 1.0 | 2.0 | 0.00 | 0.00 | 0.00 | 83 | 1013.8 |
| 20260510074404 | 63 | 55 | 1.0 | 2.0 | 0.00 | 0.00 | 0.00 | 83 | 1013.7 |
| 20260510073404 | 62 | 59 | 0.0 | 2.0 | 0.00 | 0.00 | 0.00 | 83 | 1013.7 |
| 20260510071905 | 62 | 27 | 0.0 | 1.0 | 0.00 | 0.00 | 0.00 | 83 | 1013.6 |
| 20260510071403 | 62 | 26 | 1.0 | 2.0 | 0.00 | 0.00 | 0.00 | 82 | 1013.5 |
| 20260510070904 | 62 | 32 | 1.0 | 2.0 | 0.00 | 0.00 | 0.00 | 82 | 1013.5 |
| 20260510070404 | 62 | 34 | 1.0 | 2.0 | 0.00 | 0.00 | 0.00 | 82 | 1013.4 |
| 20260510064905 | 62 | 31 | 1.0 | 3.0 | 0.00 | 0.00 | 0.00 | 81 | 1013.5 |
| 20260510064403 | 62 | 43 | 1.0 | 2.0 | 0.00 | 0.00 | 0.00 | 81 | 1013.4 |
| 20260510063903 | 62 | 30 | 2.0 | 3.0 | 0.00 | 0.00 | 0.00 | 81 | 1013.4 |
| 20260510063405 | 62 | 33 | 2.0 | 2.0 | 0.00 | 0.00 | 0.00 | 80 | 1013.4 |
| 20260510061904 | 62 | 34 | 2.0 | 3.0 | 0.00 | 0.00 | 0.00 | 79 | 1013.3 |
| 20260510061404 | 62 | 38 | 2.0 | 2.0 | 0.00 | 0.00 | 0.00 | 79 | 1013.3 |
| 20260510060903 | 63 | 34 | 2.0 | 3.0 | 0.00 | 0.00 | 0.00 | 77 | 1013.2 |
| 20260510060403 | 63 | 30 | 1.0 | 3.0 | 0.00 | 0.00 | 0.00 | 76 | 1013.2 |
| 20260510054904 | 64 | 32 | 1.0 | 3.0 | 0.00 | 0.00 | 0.00 | 73 | 1013.2 |
| 20260510054406 | 64 | 40 | 1.0 | 3.0 | 0.00 | 0.00 | 0.00 | 72 | 1013.2 |
| 20260510053911 | 64 | 88 | 0.0 | 1.0 | 0.00 | 0.00 | 0.00 | 73 | 1013.2 |
| 20260510053404 | 64 | 68 | 1.0 | 2.0 | 0.00 | 0.00 | 0.00 | 73 | 1013.1 |
| 20260510051905 | 64 | 38 | 1.0 | 2.0 | 0.00 | 0.00 | 0.00 | 73 | 1013.3 |
| 20260510050404 | 63 | 27 | 1.0 | 3.0 | 0.00 | 0.00 | 0.00 | 73 | 1013.2 |
| 20260510044904 | 63 | 332 | 0.0 | 1.0 | 0.00 | 0.00 | 0.00 | 73 | 1013.1 |
| 20260510044403 | 63 | 332 | 0.0 | 2.0 | 0.00 | 0.00 | 0.00 | 73 | 1013.1 |
| 20260510043905 | 63 | 76 | 1.0 | 2.0 | 0.00 | 0.00 | 0.00 | 73 | 1013.1 |
| 20260510043403 | 63 | 76 | 0.0 | 1.0 | 0.00 | 0.00 | 0.00 | 73 | 1013.1 |
| 20260510041903 | 63 | 76 | 1.0 | 2.0 | 0.00 | 0.00 | 0.00 | 72 | 1012.9 |
| 20260510041403 | 64 | 76 | 1.0 | 2.0 | 0.00 | 0.00 | 0.00 | 72 | 1012.9 |
| 20260510040904 | 64 | 76 | 1.0 | 1.0 | 0.00 | 0.00 | 0.00 | 72 | 1013.0 |
| 20260510034403 | 63 | 28 | 2.0 | 5.0 | 0.00 | 0.00 | 0.00 | 71 | 1012.8 |
| 20260510033904 | 63 | 39 | 2.0 | 5.0 | 0.00 | 0.00 | 0.00 | 71 | 1012.8 |
| 20260510033403 | 64 | 325 | 2.0 | 3.0 | 0.00 | 0.00 | 0.00 | 71 | 1012.9 |
| 20260510031904 | 64 | 354 | 1.0 | 3.0 | 0.00 | 0.00 | 0.00 | 70 | 1013.0 |
| 20260510030903 | 64 | 359 | 1.0 | 3.0 | 0.00 | 0.00 | 0.00 | 69 | 1013.1 |
| 20260510030406 | 64 | 339 | 1.0 | 3.0 | 0.00 | 0.00 | 0.00 | 68 | 1013.2 |
| 20260510024906 | 64 | 357 | 1.0 | 3.0 | 0.00 | 0.00 | 0.00 | 68 | 1013.3 |
| 20260510024403 | 64 | 21 | 2.0 | 3.0 | 0.00 | 0.00 | 0.00 | 67 | 1013.4 |
| 20260510023903 | 64 | 22 | 2.0 | 3.0 | 0.00 | 0.00 | 0.00 | 66 | 1013.4 |
| 20260510023405 | 64 | 11 | 2.0 | 3.0 | 0.00 | 0.00 | 0.00 | 67 | 1013.2 |
| 20260510021904 | 65 | 17 | 2.0 | 2.0 | 0.00 | 0.00 | 0.00 | 66 | 1013.4 |
| 20260510021404 | 66 | 35 | 1.0 | 2.0 | 0.00 | 0.00 | 0.00 | 65 | 1013.5 |
| 20260510020903 | 66 | 77 | 1.0 | 2.0 | 0.00 | 0.00 | 0.00 | 64 | 1013.4 |
| 20260510020404 | 66 | 99 | 1.0 | 3.0 | 0.00 | 0.00 | 0.00 | 63 | 1013.4 |
| 20260510014904 | 66 | 318 | 0.0 | 1.0 | 0.00 | 0.00 | 0.00 | 62 | 1013.4 |
| 20260510014404 | 66 | 122 | 0.0 | 2.0 | 0.00 | 0.00 | 0.00 | 61 | 1013.3 |
| 20260510013903 | 66 | 111 | 1.0 | 3.0 | 0.00 | 0.00 | 0.00 | 61 | 1013.2 |
| 20260510011905 | 66 | 190 | 1.0 | 3.0 | 0.00 | 0.00 | 0.00 | 60 | 1013.2 |
| 20260510011403 | 66 | 63 | 2.0 | 3.0 | 0.00 | 0.00 | 0.00 | 60 | 1013.2 |
| 20260510010903 | 66 | 40 | 3.0 | 5.0 | 0.00 | 0.00 | 0.00 | 60 | 1013.3 |
| 20260510010403 | 66 | 44 | 1.0 | 8.0 | 0.00 | 0.00 | 0.00 | 60 | 1013.3 |
| 20260510004903 | 66 | 37 | 2.0 | 3.0 | 0.00 | 0.00 | 0.00 | 62 | 1013.7 |
| 20260510004403 | 66 | 26 | 1.0 | 7.0 | 0.00 | 0.00 | 0.00 | 62 | 1013.8 |
| 20260510003403 | 65 | 6 | 1.0 | 3.0 | 0.00 | 0.00 | 0.00 | 63 | 1014.0 |
| 20260510001906 | 64 | 17 | 2.0 | 3.0 | 0.00 | 0.00 | 0.00 | 65 | 1014.4 |
| 20260510001406 | 64 | 0 | 1.0 | 5.0 | 0.00 | 0.00 | 0.00 | 66 | 1014.4 |
| 20260510000906 | 64 | 9 | 2.0 | 5.0 | 0.00 | 0.00 | 0.00 | 66 | 1014.6 |
| 20260510000404 | 64 | 14 | 1.0 | 3.0 | 0.00 | 0.00 | 0.00 | 68 | 1014.7 |
| 20260509234907 | 64 | 5 | 2.0 | 2.0 | 0.00 | 0.00 | 0.00 | 67 | 1015.2 |
| 20260509234403 | 64 | 5 | 1.0 | 2.0 | 0.00 | 0.00 | 0.00 | 67 | 1015.2 |
| 20260509233903 | 64 | 5 | 1.0 | 3.0 | 0.00 | 0.00 | 0.00 | 67 | 1015.1 |
| 20260509233403 | 64 | 5 | 1.0 | 3.0 | 0.00 | 0.00 | 0.00 | 67 | 1015.2 |
| 20260509231903 | 64 | 5 | 1.0 | 2.0 | 0.00 | 0.00 | 0.00 | 67 | 1015.1 |
| 20260509231403 | 64 | 5 | 1.0 | 2.0 | 0.00 | 0.00 | 0.00 | 67 | 1015.3 |
| 20260509230906 | 64 | 5 | 1.0 | 2.0 | 0.00 | 0.00 | 0.00 | 67 | 1015.2 |
| 20260509230406 | 64 | 329 | 1.0 | 3.0 | 0.00 | 0.00 | 0.00 | 67 | 1015.2 |
| 20260509224903 | 64 | 341 | 1.0 | 2.0 | 0.00 | 0.00 | 0.00 | 67 | 1015.0 |
| 20260509224405 | 65 | 37 | 2.0 | 3.0 | 0.00 | 0.00 | 0.00 | 65 | 1014.8 |
| 20260509223904 | 65 | 46 | 2.0 | 3.0 | 0.00 | 0.00 | 0.00 | 65 | 1014.7 |
| 20260509221405 | 65 | 54 | 2.0 | 3.0 | 0.00 | 0.00 | 0.00 | 62 | 1014.1 |
| 20260509220903 | 64 | 34 | 1.0 | 3.0 | 0.00 | 0.00 | 0.00 | 62 | 1014.2 |
| 20260509214903 | 65 | 49 | 2.0 | 3.0 | 0.00 | 0.00 | 0.00 | 65 | 1014.4 |
| 20260509214406 | 65 | 66 | 2.0 | 7.0 | 0.00 | 0.00 | 0.00 | 65 | 1014.6 |
| 20260509213902 | 64 | 33 | 2.0 | 6.0 | 0.00 | 0.00 | 0.00 | 66 | 1014.7 |
| 20260509213403 | 64 | 18 | 2.0 | 6.0 | 0.00 | 0.00 | 0.00 | 67 | 1014.9 |
| 20260509211903 | 64 | 24 | 2.0 | 3.0 | 0.00 | 0.00 | 0.00 | 69 | 1015.3 |
| 20260509211403 | 64 | 30 | 1.0 | 3.0 | 0.00 | 0.00 | 0.00 | 70 | 1015.5 |
| 20260509210406 | 64 | 34 | 1.0 | 2.0 | 0.00 | 0.00 | 0.00 | 71 | 1015.5 |
| 20260509203902 | 64 | 96 | 1.0 | 3.0 | 0.00 | 0.00 | 0.00 | 71 | 1015.4 |
| 20260509203404 | 64 | 103 | 1.0 | 3.0 | 0.00 | 0.00 | 0.00 | 71 | 1015.4 |
| 20260509201902 | 64 | 72 | 1.0 | 2.0 | 0.00 | 0.00 | 0.00 | 71 | 1015.3 |
| 20260509201402 | 64 | 34 | 1.0 | 3.0 | 0.00 | 0.00 | 0.00 | 71 | 1015.2 |
| 20260509200903 | 65 | 217 | 1.0 | 2.0 | 0.00 | 0.00 | 0.00 | 71 | 1015.2 |
| 20260509200403 | 65 | 217 | 1.0 | 2.0 | 0.00 | 0.00 | 0.00 | 71 | 1015.1 |